Weather in Popov Porog

Russia / Republic of Karelia     63°24′29″N   34°00′50″E
temp.,
°C
wind,
m/s
gust,
m/s
humid.,
%
clouds,
%
prec.,
mm/h
press.,
hPa
HPBL,
m
28 february, sun
sun2800:00−6wsw239560 0.0 101462
03:00−8sw239576 0.0 101249
06:00−7sw2394100 0.0 101066
09:00−6ssw2495100 0.0 101196
12:00−3sw349488 0.0 1011242
15:00−1wsw369583 0.0 1013326
18:000w2795100 0.0 1013418
21:00−2wsw379588 0.0 1013149
1 march, mon
mon100:00−3sw479453 0.0 1012190
03:00−1wsw6129760 0.0 1011506
06:00+2w61494100 0.1 1008652
09:00+1w51393100 0.1 1007796
12:00+2w41297100 0.0 1004754
15:00+1w4999100 2.1 1004438
18:00+1wnw51188100 0.0 1002864
21:000wnw51294100 0.1 1001928
2 march, tue
tue200:00−2wnw5148433 0.1 1000631
03:00−1wnw7158856 0.2 10001221
06:00−2nw71679100 0.1 10001093
09:00−4nw7148599 0.1 1003894
12:00−3nnw61285100 0.0 1007706
15:00−2nw5118597 0.1 1009762
18:00−4nw3128754 0.0 1010461
21:00−4nw4128972 0.0 1012515
3 march, wed
wed300:00−5nw4119325 0.0 1013357
03:00−6wnw399519 0.1 1014274
06:00−7wnw389572 0.1 1014213
09:00−7w389348 0.1 1014235
12:00−4w378962 0.0 1013292
15:00−2wsw4108473 0.0 1010660
18:00−3wsw41188100 0.0 1005512
21:00−2wsw61396100 1.7 1000915
4 march, thu
thu400:00+1wsw61397100 0.6 994927
03:000wnw4997100 5.0 991713
06:00−4wnw41284100 0.4 989659
09:00−6wnw7158691 0.6 9901374
12:00−6nnw91784100 0.4 9941321
15:00−6nnw71187100 0.6 9981105
18:00−8nw51187100 0.1 1000658
21:00−10wnw399575 0.2 1000342